EZY4121 EGPH-EDDV

Flight info

Callsign EZY4121
Flight time 1h 42m
Altitude 39000
Route TLA Y96 AGPED N110 DOLAS L603 LAMSO DCT EFIDE T463 NIE
Aircraft A20N/M-SDE2E3FGHIRWXY/LB1

Departure

Time 2026-05-05 12:51
Airport Edinburgh Airport (EGPH)

Arrival

Time 2026-05-05 14:34
Airport Hannover Airport (EDDV)
Time Latitude Longitude Altitude Speed Heading
2026-05-05 12:33 55.94942 -3.35969 107 ft 0 kts 255°
2026-05-05 12:39 55.94943 -3.35968 107 ft 0 kts 261°
2026-05-05 12:39 55.94943 -3.35965 107 ft 4 kts 261°
2026-05-05 12:40 55.94945 -3.35937 108 ft 2 kts 261°
2026-05-05 12:40 55.94946 -3.35933 108 ft 0 kts 261°
2026-05-05 12:40 55.94947 -3.35916 108 ft 2 kts 261°
2026-05-05 12:40 55.94949 -3.35894 107 ft 3 kts 253°
2026-05-05 12:41 55.94959 -3.35859 106 ft 3 kts 219°
2026-05-05 12:41 55.94955 -3.35859 105 ft 3 kts 198°
2026-05-05 12:41 55.94936 -3.35856 105 ft 3 kts 152°
2026-05-05 12:41 55.94929 -3.35842 107 ft 0 kts 125°
2026-05-05 12:43 55.94929 -3.35841 107 ft 0 kts 125°
2026-05-05 12:44 55.94933 -3.35852 106 ft 4 kts 85°
2026-05-05 12:44 55.94941 -3.35861 107 ft 3 kts
2026-05-05 12:44 55.94942 -3.35862 107 ft 0 kts
2026-05-05 12:46 55.94944 -3.35861 107 ft 1 kts
2026-05-05 12:46 55.94970 -3.35860 106 ft 6 kts
2026-05-05 12:47 55.95031 -3.35814 107 ft 12 kts 30°
2026-05-05 12:47 55.95102 -3.35815 109 ft 12 kts 318°
2026-05-05 12:47 55.95171 -3.35951 107 ft 18 kts 342°
2026-05-05 12:47 55.95179 -3.36139 108 ft 19 kts 241°
2026-05-05 12:48 55.95104 -3.36373 111 ft 24 kts 239°
2026-05-05 12:48 55.95006 -3.36659 110 ft 30 kts 238°
2026-05-05 12:48 55.94886 -3.37010 108 ft 36 kts 238°
2026-05-05 12:48 55.94745 -3.37412 112 ft 39 kts 242°
2026-05-05 12:49 55.94612 -3.37824 114 ft 37 kts 239°
2026-05-05 12:49 55.94505 -3.38134 114 ft 27 kts 238°
2026-05-05 12:49 55.94410 -3.38414 115 ft 26 kts 239°
2026-05-05 12:49 55.94343 -3.38615 118 ft 16 kts 239°
2026-05-05 12:50 55.94284 -3.38792 121 ft 18 kts 247°
2026-05-05 12:50 55.94349 -3.38935 120 ft 17 kts 330°
2026-05-05 12:50 55.94432 -3.38927 120 ft 8 kts 66°
2026-05-05 12:50 55.94469 -3.38805 118 ft 28 kts 59°
2026-05-05 12:51 55.94697 -3.38135 119 ft 94 kts 58°
2026-05-05 12:51 55.95125 -3.36863 147 ft 140 kts 60°
2026-05-05 12:51 55.95663 -3.35320 609 ft 149 kts 60°
2026-05-05 12:51 55.96178 -3.33793 1466 ft 137 kts 54°
2026-05-05 12:52 55.96830 -3.32565 2130 ft 142 kts 43°
2026-05-05 12:52 55.97648 -3.31395 2552 ft 161 kts 40°
2026-05-05 12:52 55.98574 -3.30085 3018 ft 180 kts 41°
2026-05-05 12:52 55.99591 -3.28553 3475 ft 203 kts 41°
2026-05-05 12:53 56.00717 -3.26776 3970 ft 225 kts 42°
2026-05-05 12:53 56.01902 -3.24860 4770 ft 233 kts 42°
2026-05-05 12:53 56.03135 -3.22844 5398 ft 251 kts 41°
2026-05-05 12:53 56.04466 -3.20664 6132 ft 264 kts 42°
2026-05-05 12:54 56.05760 -3.14513 7791 ft 287 kts 95°
2026-05-05 12:54 56.05126 -3.11085 8619 ft 297 kts 122°
2026-05-05 12:54 56.03703 -3.08394 9465 ft 300 kts 148°
2026-05-05 12:55 56.01885 -3.06514 10340 ft 305 kts 155°
2026-05-05 12:55 55.99952 -3.04632 10758 ft 328 kts 153°
2026-05-05 12:55 55.97946 -3.02397 11093 ft 351 kts 148°
2026-05-05 12:55 55.95883 -2.99963 11801 ft 356 kts 156°
2026-05-05 12:56 55.93539 -2.98684 12673 ft 352 kts 178°
2026-05-05 12:56 55.91094 -2.98616 13492 ft 354 kts 185°
2026-05-05 12:56 55.88612 -2.98728 14284 ft 357 kts 185°
2026-05-05 12:56 55.86121 -2.98844 15044 ft 360 kts 185°
2026-05-05 12:57 55.84453 -2.98908 15529 ft 363 kts 185°
2026-05-05 12:57 55.81918 -2.98984 16284 ft 366 kts 185°
2026-05-05 12:57 55.78519 -2.99058 17261 ft 371 kts 184°
2026-05-05 12:57 55.76766 -2.99090 17743 ft 374 kts 184°
2026-05-05 12:58 55.74154 -2.99136 18438 ft 377 kts 184°
2026-05-05 12:58 55.71514 -2.99182 19063 ft 380 kts 184°
2026-05-05 12:58 55.68859 -2.99228 19665 ft 384 kts 184°
2026-05-05 12:58 55.66180 -2.99278 20295 ft 386 kts 184°
2026-05-05 12:59 55.63478 -2.99327 20905 ft 390 kts 184°
2026-05-05 12:59 55.60747 -2.99087 21499 ft 397 kts 172°
2026-05-05 12:59 55.58109 -2.97522 22097 ft 406 kts 155°
2026-05-05 13:00 55.53298 -2.92181 23265 ft 415 kts 149°
2026-05-05 13:00 55.50868 -2.89411 23818 ft 418 kts 149°
2026-05-05 13:01 55.43483 -2.81002 25308 ft 425 kts 149°
2026-05-05 13:01 55.40995 -2.78168 25774 ft 428 kts 149°
2026-05-05 13:01 55.38492 -2.75307 26238 ft 430 kts 149°
2026-05-05 13:01 55.35976 -2.72426 26676 ft 433 kts 149°
2026-05-05 13:02 55.33447 -2.69516 27118 ft 436 kts 149°
2026-05-05 13:02 55.30908 -2.66587 27536 ft 438 kts 149°
2026-05-05 13:02 55.28355 -2.63629 27936 ft 441 kts 149°
2026-05-05 13:02 55.25789 -2.60648 28342 ft 443 kts 149°
2026-05-05 13:03 55.23210 -2.57644 28735 ft 446 kts 149°
2026-05-05 13:03 55.20619 -2.54620 29133 ft 448 kts 149°
2026-05-05 13:03 55.18048 -2.51614 29483 ft 451 kts 149°
2026-05-05 13:03 55.15396 -2.48504 29847 ft 454 kts 149°
2026-05-05 13:04 55.12774 -2.45417 30173 ft 456 kts 149°
2026-05-05 13:04 55.10171 -2.42345 30485 ft 458 kts 149°
2026-05-05 13:04 55.07540 -2.39172 30787 ft 463 kts 145°
2026-05-05 13:04 55.05191 -2.35277 31081 ft 471 kts 133°
2026-05-05 13:05 55.03236 -2.30674 31439 ft 473 kts 128°
2026-05-05 13:05 55.01352 -2.25963 31848 ft 473 kts 128°
2026-05-05 13:05 54.99482 -2.21265 32248 ft 472 kts 128°
2026-05-05 13:05 54.97608 -2.16570 32654 ft 471 kts 128°
2026-05-05 13:06 54.95737 -2.11905 33072 ft 470 kts 128°
2026-05-05 13:06 54.93860 -2.07247 33477 ft 469 kts 128°
2026-05-05 13:06 54.91976 -2.02627 33881 ft 467 kts 131°
2026-05-05 13:06 54.89775 -1.98546 34207 ft 460 kts 143°
2026-05-05 13:07 54.87282 -1.95096 34483 ft 458 kts 145°
2026-05-05 13:07 54.84765 -1.91688 34761 ft 458 kts 145°
2026-05-05 13:07 54.82253 -1.88288 35038 ft 458 kts 145°
2026-05-05 13:07 54.79745 -1.84889 35306 ft 458 kts 145°
2026-05-05 13:08 54.77233 -1.81483 35570 ft 457 kts 144°
2026-05-05 13:08 54.74727 -1.78085 35814 ft 457 kts 144°
2026-05-05 13:08 54.72218 -1.74686 36056 ft 457 kts 144°
2026-05-05 13:08 54.69713 -1.71299 36301 ft 457 kts 144°
2026-05-05 13:09 54.67205 -1.67912 36538 ft 457 kts 144°
2026-05-05 13:09 54.64699 -1.64534 36758 ft 457 kts 144°
2026-05-05 13:09 54.62229 -1.61209 36980 ft 457 kts 144°
2026-05-05 13:09 54.59723 -1.57840 37195 ft 457 kts 144°
2026-05-05 13:10 54.57214 -1.54474 37406 ft 457 kts 144°
2026-05-05 13:10 54.54704 -1.51110 37610 ft 457 kts 144°
2026-05-05 13:10 54.53009 -1.48843 37745 ft 457 kts 144°
2026-05-05 13:10 54.49681 -1.44396 37994 ft 457 kts 144°
2026-05-05 13:11 54.47168 -1.41045 38187 ft 457 kts 144°
2026-05-05 13:11 54.44657 -1.37702 38363 ft 457 kts 144°
2026-05-05 13:11 54.42146 -1.34365 38541 ft 457 kts 144°
2026-05-05 13:11 54.39632 -1.31029 38694 ft 457 kts 144°
2026-05-05 13:12 54.36577 -1.26981 38865 ft 456 kts 144°
2026-05-05 13:12 54.34095 -1.23698 38957 ft 457 kts 144°
2026-05-05 13:12 54.29059 -1.17052 39024 ft 456 kts 144°
2026-05-05 13:13 54.24034 -1.10445 39021 ft 455 kts 144°
2026-05-05 13:13 54.19005 -1.03852 39016 ft 455 kts 144°
2026-05-05 13:14 54.13975 -0.97278 39016 ft 455 kts 144°
2026-05-05 13:14 54.08943 -0.90722 39014 ft 455 kts 144°
2026-05-05 13:15 54.04855 -0.85064 39012 ft 456 kts 137°
2026-05-05 13:15 54.00379 -0.75064 39013 ft 460 kts 120°
2026-05-05 13:16 53.97798 -0.67074 39009 ft 460 kts 120°
2026-05-05 13:16 53.94717 -0.57627 39008 ft 460 kts 121°
2026-05-05 13:17 53.91601 -0.48149 39010 ft 460 kts 121°
2026-05-05 13:17 53.88471 -0.38677 39006 ft 460 kts 121°
2026-05-05 13:18 53.85333 -0.29219 39004 ft 460 kts 121°
2026-05-05 13:18 53.82193 -0.19788 39002 ft 460 kts 121°
2026-05-05 13:19 53.79042 -0.10364 39001 ft 460 kts 121°
2026-05-05 13:19 53.75903 -0.01010 39001 ft 460 kts 121°
2026-05-05 13:20 53.72738 0.08386 38998 ft 460 kts 121°
2026-05-05 13:20 53.69565 0.17769 39001 ft 460 kts 121°
2026-05-05 13:21 53.66384 0.27141 38998 ft 460 kts 121°
2026-05-05 13:21 53.63200 0.36484 38997 ft 459 kts 121°
2026-05-05 13:22 53.60008 0.45816 38996 ft 460 kts 121°
2026-05-05 13:22 53.56809 0.55133 38996 ft 459 kts 121°
2026-05-05 13:23 53.53625 0.64372 38995 ft 459 kts 122°
2026-05-05 13:23 53.50417 0.73645 38999 ft 459 kts 122°
2026-05-05 13:24 53.47200 0.82911 39000 ft 459 kts 122°
2026-05-05 13:24 53.43981 0.92146 38996 ft 459 kts 122°
2026-05-05 13:25 53.40750 1.01383 39000 ft 458 kts 122°
2026-05-05 13:25 53.37530 1.10552 38997 ft 458 kts 122°
2026-05-05 13:26 53.34290 1.19747 39000 ft 458 kts 122°
2026-05-05 13:26 53.31045 1.28920 38999 ft 458 kts 122°
2026-05-05 13:27 53.27798 1.38065 38998 ft 457 kts 122°
2026-05-05 13:27 53.24539 1.47210 38999 ft 457 kts 122°
2026-05-05 13:28 53.21281 1.56320 38998 ft 457 kts 122°
2026-05-05 13:28 53.18040 1.65349 38998 ft 457 kts 123°
2026-05-05 13:29 53.14773 1.74420 39000 ft 456 kts 123°
2026-05-05 13:29 53.11496 1.83482 38996 ft 456 kts 123°
2026-05-05 13:30 53.08218 1.92515 38996 ft 456 kts 123°
2026-05-05 13:30 53.04932 2.01538 38995 ft 456 kts 123°
2026-05-05 13:31 53.01644 2.10533 39000 ft 456 kts 123°
2026-05-05 13:31 52.98347 2.19522 38994 ft 455 kts 123°
2026-05-05 13:32 52.95044 2.28493 38991 ft 455 kts 123°
2026-05-05 13:32 52.91735 2.37450 38995 ft 455 kts 123°
2026-05-05 13:33 52.88425 2.46378 38985 ft 455 kts 123°
2026-05-05 13:33 52.85109 2.55291 38983 ft 455 kts 123°
2026-05-05 13:34 52.81808 2.64130 38986 ft 454 kts 124°
2026-05-05 13:34 52.78483 2.73013 38980 ft 454 kts 124°
2026-05-05 13:35 52.75691 2.82376 38982 ft 458 kts 110°
2026-05-05 13:35 52.74172 2.92611 38979 ft 460 kts 104°
2026-05-05 13:36 52.73148 3.02961 38979 ft 461 kts 95°
2026-05-05 13:36 52.72792 3.13536 38977 ft 462 kts 95°
2026-05-05 13:37 52.72410 3.24119 38975 ft 462 kts 95°
2026-05-05 13:37 52.72018 3.34689 38962 ft 462 kts 95°
2026-05-05 13:38 52.71614 3.45257 38960 ft 462 kts 95°
2026-05-05 13:38 52.71200 3.55842 38974 ft 462 kts 95°
2026-05-05 13:39 52.70780 3.66348 38967 ft 462 kts 95°
2026-05-05 13:39 52.70348 3.76916 38957 ft 462 kts 95°
2026-05-05 13:40 52.69906 3.87489 38962 ft 462 kts 96°
2026-05-05 13:40 52.69455 3.98051 38959 ft 462 kts 96°
2026-05-05 13:41 52.68994 4.08615 38956 ft 462 kts 96°
2026-05-05 13:41 52.68524 4.19171 38953 ft 462 kts 96°
2026-05-05 13:42 52.68044 4.29725 38950 ft 462 kts 96°
2026-05-05 13:42 52.67555 4.40284 38949 ft 462 kts 96°
2026-05-05 13:43 52.67057 4.50837 38949 ft 462 kts 96°
2026-05-05 13:43 52.66552 4.61322 38949 ft 462 kts 96°
2026-05-05 13:44 52.66035 4.71871 38948 ft 462 kts 96°
2026-05-05 13:44 52.65508 4.82422 38947 ft 462 kts 96°
2026-05-05 13:45 52.64973 4.92971 38944 ft 462 kts 96°
2026-05-05 13:45 52.64427 5.03523 38939 ft 462 kts 96°
2026-05-05 13:46 52.63872 5.14068 38927 ft 462 kts 97°
2026-05-05 13:46 52.63308 5.24615 38924 ft 462 kts 97°
2026-05-05 13:47 52.62735 5.35154 38917 ft 463 kts 97°
2026-05-05 13:47 52.62152 5.45704 38914 ft 463 kts 97°
2026-05-05 13:48 52.61559 5.56245 38913 ft 463 kts 97°
2026-05-05 13:48 52.60961 5.66723 38912 ft 463 kts 97°
2026-05-05 13:49 52.60349 5.77268 38911 ft 463 kts 97°
2026-05-05 13:49 52.59727 5.87838 38911 ft 463 kts 97°
2026-05-05 13:50 52.59095 5.98407 38911 ft 464 kts 97°
2026-05-05 13:50 52.58454 6.08964 38911 ft 464 kts 98°
2026-05-05 13:51 52.57803 6.19518 38908 ft 464 kts 98°
2026-05-05 13:51 52.57147 6.30016 38904 ft 464 kts 98°
2026-05-05 13:52 52.56476 6.40589 38908 ft 465 kts 98°
2026-05-05 13:52 52.55796 6.51155 38905 ft 465 kts 98°
2026-05-05 13:53 52.55107 6.61713 38902 ft 465 kts 98°
2026-05-05 13:53 52.54408 6.72289 38911 ft 465 kts 98°
2026-05-05 13:54 52.53704 6.82790 38905 ft 465 kts 98°
2026-05-05 13:54 52.52986 6.93360 38906 ft 466 kts 98°
2026-05-05 13:55 52.52264 7.03936 38906 ft 466 kts 98°
2026-05-05 13:55 52.52326 7.14622 38907 ft 470 kts 89°
2026-05-05 13:56 52.52670 7.25338 38908 ft 470 kts 89°
2026-05-05 13:56 52.52983 7.36060 38908 ft 470 kts 89°
2026-05-05 13:57 52.53276 7.46803 38909 ft 471 kts 89°
2026-05-05 13:57 52.53558 7.57552 38905 ft 471 kts 89°
2026-05-05 13:58 52.53830 7.68313 38901 ft 471 kts 89°
2026-05-05 13:58 52.54092 7.79010 38901 ft 472 kts 90°
2026-05-05 13:59 52.54472 7.95182 38906 ft 472 kts 90°
2026-05-05 14:00 52.54792 8.09554 38910 ft 473 kts 90°
2026-05-05 14:00 52.55059 8.22208 38914 ft 474 kts 90°
2026-05-05 14:01 52.55277 8.33033 38912 ft 474 kts 90°
2026-05-05 14:01 52.55661 8.43775 38913 ft 475 kts 84°
2026-05-05 14:02 52.56514 8.54573 38909 ft 476 kts 84°
2026-05-05 14:02 52.57345 8.65368 38905 ft 476 kts 84°
2026-05-05 14:03 52.58163 8.76184 38903 ft 476 kts 84°
2026-05-05 14:03 52.58835 8.85162 38902 ft 476 kts 84°
2026-05-05 14:04 52.59635 8.95986 38898 ft 477 kts 84°
2026-05-05 14:04 52.60425 9.06808 38891 ft 476 kts 84°
2026-05-05 14:05 52.61204 9.17631 38889 ft 476 kts 84°
2026-05-05 14:05 52.62560 9.28268 38858 ft 475 kts 67°
2026-05-05 14:06 52.64099 9.33066 38540 ft 475 kts 54°
2026-05-05 14:06 52.66204 9.37275 37897 ft 477 kts 42°
2026-05-05 14:06 52.68775 9.40721 36970 ft 476 kts 30°
2026-05-05 14:06 52.71651 9.43420 35852 ft 477 kts 23°
2026-05-05 14:07 52.74677 9.45721 34586 ft 481 kts 19°
2026-05-05 14:07 52.77826 9.47639 33257 ft 482 kts
2026-05-05 14:07 52.81115 9.48533 31873 ft 477 kts 358°
2026-05-05 14:07 52.84370 9.48326 30570 ft 472 kts 346°
2026-05-05 14:08 52.87532 9.47032 29189 ft 466 kts 334°
2026-05-05 14:08 52.90429 9.44712 27758 ft 459 kts 323°
2026-05-05 14:08 52.92914 9.41497 26408 ft 450 kts 311°
2026-05-05 14:08 52.94892 9.37534 25105 ft 443 kts 299°
2026-05-05 14:09 52.96271 9.33037 23885 ft 436 kts 288°
2026-05-05 14:09 52.97160 9.28252 22532 ft 432 kts 284°
2026-05-05 14:09 52.97894 9.23437 21172 ft 429 kts 280°
2026-05-05 14:09 52.98362 9.18570 19867 ft 425 kts 276°
2026-05-05 14:10 52.98706 9.13711 18617 ft 422 kts 274°
2026-05-05 14:10 52.98618 9.08876 17288 ft 418 kts 260°
2026-05-05 14:10 52.97822 9.04265 15959 ft 415 kts 246°
2026-05-05 14:10 52.96361 9.00161 14667 ft 412 kts 232°
2026-05-05 14:11 52.94334 8.96836 13400 ft 410 kts 217°
2026-05-05 14:11 52.91858 8.94542 12103 ft 407 kts 201°
2026-05-05 14:11 52.89162 8.93277 10962 ft 399 kts 194°
2026-05-05 14:11 52.86487 8.92200 9848 ft 392 kts 194°
2026-05-05 14:12 52.83864 8.91143 8607 ft 385 kts 194°
2026-05-05 14:12 52.81278 8.90098 7416 ft 380 kts 194°
2026-05-05 14:12 52.78720 8.89052 6308 ft 375 kts 194°
2026-05-05 14:12 52.76258 8.88052 5606 ft 360 kts 192°
2026-05-05 14:13 52.73854 8.87439 5226 ft 339 kts 186°
2026-05-05 14:13 52.71580 8.87082 5010 ft 315 kts 186°
2026-05-05 14:13 52.69426 8.86751 4913 ft 313 kts 185°
2026-05-05 14:13 52.67256 8.86933 4901 ft 312 kts 171°
2026-05-05 14:14 52.65114 8.87535 4907 ft 312 kts 169°
2026-05-05 14:14 52.62994 8.88186 4896 ft 302 kts 169°
2026-05-05 14:14 52.61026 8.88887 4894 ft 277 kts 160°
2026-05-05 14:14 52.59500 8.90513 4892 ft 251 kts 134°
2026-05-05 14:15 52.58505 8.92675 4893 ft 238 kts 112°
2026-05-05 14:15 52.58246 8.95375 4899 ft 241 kts 84°
2026-05-05 14:15 52.58439 8.98112 4885 ft 240 kts 81°
2026-05-05 14:15 52.58730 9.00795 4676 ft 237 kts 78°
2026-05-05 14:16 52.59046 9.03446 4322 ft 235 kts 78°
2026-05-05 14:16 52.59183 9.06050 4130 ft 225 kts 99°
2026-05-05 14:16 52.58586 9.08380 3785 ft 222 kts 122°
2026-05-05 14:16 52.58414 9.08811 3707 ft 222 kts 123°
2026-05-05 14:23 52.57747 9.10740 3640 ft 216 kts 115°
2026-05-05 14:24 52.57070 9.12988 3668 ft 224 kts 116°
2026-05-05 14:24 52.56342 9.15391 3857 ft 247 kts 116°
2026-05-05 14:24 52.55566 9.17979 4444 ft 253 kts 116°
2026-05-05 14:24 52.54818 9.20541 5468 ft 248 kts 116°
2026-05-05 14:25 52.54074 9.23115 5677 ft 251 kts 121°
2026-05-05 14:25 52.53015 9.25350 5652 ft 245 kts 133°
2026-05-05 14:25 52.51912 9.27417 5574 ft 235 kts 133°
2026-05-05 14:25 52.50822 9.29374 5324 ft 229 kts 142°
2026-05-05 14:26 52.49407 9.30456 4967 ft 225 kts 174°
2026-05-05 14:26 52.47884 9.30112 4594 ft 223 kts 207°
2026-05-05 14:26 52.46736 9.28467 4197 ft 222 kts 240°
2026-05-05 14:26 52.46339 9.26061 3815 ft 221 kts 274°
2026-05-05 14:27 52.46827 9.23707 3455 ft 221 kts 308°
2026-05-05 14:27 52.48028 9.22223 3138 ft 217 kts 343°
2026-05-05 14:27 52.49498 9.22166 3024 ft 218 kts 19°
2026-05-05 14:27 52.50733 9.23522 3000 ft 215 kts 53°
2026-05-05 14:28 52.51263 9.25784 3005 ft 217 kts 88°
2026-05-05 14:28 52.51025 9.28228 2999 ft 218 kts 106°
2026-05-05 14:28 52.50453 9.30534 3002 ft 219 kts 114°
2026-05-05 14:28 52.49836 9.32760 2999 ft 212 kts 114°
2026-05-05 14:29 52.49248 9.34882 2995 ft 197 kts 114°
2026-05-05 14:29 52.48679 9.36939 3006 ft 201 kts 114°
2026-05-05 14:29 52.48110 9.39000 3026 ft 196 kts 114°
2026-05-05 14:29 52.47733 9.41131 3007 ft 196 kts 97°
2026-05-05 14:30 52.47591 9.43270 2892 ft 181 kts 94°
2026-05-05 14:30 52.47487 9.45269 2649 ft 171 kts 93°
2026-05-05 14:30 52.47399 9.47122 2431 ft 152 kts 92°
2026-05-05 14:30 52.47321 9.48869 2215 ft 161 kts 92°
2026-05-05 14:31 52.47247 9.50711 2041 ft 160 kts 90°
2026-05-05 14:31 52.47203 9.52571 1795 ft 163 kts 91°
2026-05-05 14:31 52.47135 9.54406 1524 ft 161 kts 91°
2026-05-05 14:31 52.47052 9.56159 1408 ft 144 kts 92°
2026-05-05 14:32 52.46980 9.57719 1189 ft 131 kts 92°
2026-05-05 14:32 52.46961 9.59161 1043 ft 126 kts 85°
2026-05-05 14:32 52.46954 9.60641 890 ft 134 kts 88°
2026-05-05 14:32 52.46911 9.62142 601 ft 130 kts 89°
2026-05-05 14:33 52.46885 9.63570 418 ft 128 kts 90°
2026-05-05 14:33 52.46833 9.65046 236 ft 129 kts 89°
2026-05-05 14:33 52.46798 9.66452 179 ft 107 kts 91°
2026-05-05 14:33 52.46771 9.67348 175 ft 50 kts 93°
2026-05-05 14:34 52.46762 9.67596 175 ft 9 kts 94°
2026-05-05 14:34 52.46743 9.67964 177 ft 42 kts 106°
2026-05-05 14:34 52.46565 9.68256 177 ft 34 kts 142°
2026-05-05 14:34 52.46383 9.68493 181 ft 34 kts 142°
2026-05-05 14:35 52.46189 9.68729 179 ft 36 kts 141°
2026-05-05 14:35 52.46014 9.69020 177 ft 37 kts 117°
2026-05-05 14:35 52.45957 9.69276 177 ft 34 kts 95°